FENGYUN 1C DEB

Satellite information

Favourite Embed

Satellite Type and Status

DEBRISIN ORBIT

Key statistics

Satellite FENGYUN 1C DEB at a glance.

Uptime

9714

Days in orbit

Revolutions

≈ 14.3

Per day

Orbit

SSO

Sun Synchronous Orbit

Inclination

98.9

Latest

Satellite identification and parameters

Extended collection of information and parameters for FENGYUN 1C DEB.

Object identification

Identified? True

Debris? True

Object name: FENGYUN 1C DEB

International designator: 1999-025ZA

Object number (NORAD): 30289

Object ID (CCSDS): 30289

Country: PEOPLES REPUBLIC OF CHINA (PRC)

Current information (Y/N): Y

RCS size: SMALL

Orbital parameters

Period: 100.995 minutes

Inclination: 98.9265 deg

SMA: 7183.897 km

Apoapsis: 832.514 km

Periapsis: 779.011 km

RAAN: 82.4139 deg

Eccentricy: 0.0037238

Argument of periapsis: 332.4816 deg

Mean anomaly: 94.2157 deg

Mean motion: 14.25813019 rev/day

Mean motion (dot): 0.00007412 rev/day2

B* drag term: 0.0031111 1/REarth

Two-line elements (TLE)

Creation date: Dec. 12, 2025, 7:26 a.m.

Reference frame: TEME

Reference center: EARTH

Epoch: Dec. 11, 2025, 10:32 p.m. UTC

TLE line 0: 0 FENGYUN 1C DEB

TLE line 1: 1 30289U 99025ZA 25345.93957270 .00007412 00000-0 31111-2 0 9991

TLE line 2: 2 30289 98.9265 82.4139 0037238 332.4816 94.2157 14.25813019970705

Live tracking on map

Real-time ground track for satellite FENGYUN 1C DEB.

In-orbit conjunctions

A list of the most updated potential collisions computed for object FENGYUN 1C DEB.

Target Orbit TCA Probability of collision Miss distance Type
THORAD AGENA D DEB LEO 2025-10-11 21:12:19 0.0001334222 317.0 (m) DEBRIS
DMSP 5D-2 F13 DEB SSO 2025-07-04 17:26:03 0.0001071417 722.0 (m) DEBRIS
FENGYUN 1C DEB SSO 2024-11-09 15:58:52 0.000236085 739.0 (m) DEBRIS

Associated space launch

Chinese polar orbiting meteorological satellite

FENGYUN 1C DEB was lifted into orbit during the mission ‘Long March 4B | Feng Yun 1C’, on board a Long March 4B space rocket.

The launch took place on May 10, 1999, 1:33 a.m. from Launch Complex 7.

For more information about the launch, click the button.

Launch to space Long March 4B | Feng Yun 1C
Long March 4B | Feng Yun 1C

Agency: N/A

Status: Launch Successful

Launch date: May 10, 1999, 1:33 a.m. UTC

Rocket: Long March 4B

Launch pad: Launch Complex 7

Location: Taiyuan Satellite Launch Center, People's Republic of China

...

Latest news about this satellite

There are no fresh news available about this satellite. Check back as we update our databases every day.


Newsletter sign-up

Weekly statistics, charts and insights to help you stay on top of the space industry.